Flag for Spain Weather past 2 weeks in Huelva, Spain

Now
75 °F

Passing clouds.


Feels Like: 78 °F
Forecast: 63 / 90 °F
Wind: 14 mph from West

Location: Rota Airport

Current Time: Aug 22, 2014 at 2:54:06 PM

Latest Report: Aug 22, 2014 at 2:00 PM


Visibility: N/A

Pressure: 30.04 "Hg

Humidity: 57%

Dew point: 59 °F

Location of HuelvaLocation

Historic Weather in Huelva — Graph

°F

Huelva temperature yesterday

Maximum temperature yesterday: 79 °F (at 11:00 AM)
Minimum temperature yesterday: 63 °F (at 6:00 AM)
Average temperature yesterday: 72 °F

Past Weeks' High & Low Weather Summary

 TemperatureHumidityPressure
High90 °F (Aug 17, 2:00 PM)94% (Aug 11, 7:00 AM)30.07 "Hg (Aug 11, 7:00 AM)
Low63 °F (Aug 21, 6:00 AM)30% (Aug 14, 5:00 PM)29.80 "Hg (Aug 17, 7:00 PM)
Average75 °F68%29.96 "Hg
* Reported Aug 7 1:00 PM — Aug 22 1:00 PM, Huelva, Weather by CustomWeather, © 2014

Note: Actual official high and low records may vary slightly from our data, if they occured in-between our weather recording intervals... More about our weather records

Advertising

Huelva weather history for previous 24 hours

 ConditionsComfort  
Time TempWeatherWind HumidityBarometerVisibility
1:00 PM
Aug 22
75 °FPassing clouds.12 mph57%30.04 "HgN/A
12:00 PM73 °FPassing clouds.8 mph61%30.04 "HgN/A
11:00 AM73 °FPassing clouds.8 mph57%30.04 "HgN/A
10:00 AM72 °FSunny.9 mph65%30.01 "Hg10 mi
9:00 AM70 °FPassing clouds.5 mph69%30.01 "HgN/A
8:00 AM66 °FClear.7 mph78%29.98 "Hg10 mi
7:00 AM68 °FClear.7 mph73%29.98 "Hg10 mi
6:00 AM68 °FClear.No wind78%29.98 "Hg10 mi
5:00 AM68 °FClear.No wind78%29.98 "Hg10 mi
4:00 AM68 °FClear.No wind83%29.98 "Hg10 mi
3:00 AM68 °FClear.No wind83%29.98 "Hg10 mi
2:00 AM68 °FClear.2 mph83%29.98 "Hg10 mi
1:00 AM70 °FClear.6 mph83%30.01 "Hg10 mi
12:00 AM70 °FClear.6 mph78%30.01 "Hg10 mi
11:00 PM
Aug 21
70 °FClear.9 mph78%29.98 "Hg10 mi
10:00 PM72 °FSunny.10 mph73%29.98 "Hg10 mi
9:00 PM73 °FSunny.12 mph65%29.98 "Hg10 mi
8:00 PM75 °FSunny.13 mph57%29.98 "Hg10 mi
7:00 PM77 °FSunny.14 mph54%29.98 "Hg10 mi
6:00 PM77 °FPassing clouds.15 mph57%29.98 "HgN/A
5:00 PM77 °FPassing clouds.14 mph54%29.98 "HgN/A
4:00 PM77 °FPassing clouds.10 mph57%30.01 "HgN/A
3:00 PM79 °FPassing clouds.10 mph54%30.01 "HgN/A
2:00 PM77 °FPassing clouds.9 mph57%30.01 "HgN/A
Weather by CustomWeather, © 2014

See weather overviewHow to use our weather pages